Hourly Data Report for September 30, 2015

EUREKA CLIMATE
NUNAVUT

79°59'21.000" N
85°56'02.000" W
10.00 m
2401199
71613
NEK

Download Data

Hourly Data (September 2015)
Hourly Data Report for September 30, 2015
TIME
LST
Temp Definition
°C
Dew Point Definition
°C
Rel Hum Definition
%
Precip. Amount Definition
mm

Wind Dir Definition
10's deg

Wind Spd Definition
km/h
Visibility Definition
km
Stn Press Definition
kPa
Hmdx Definition


Wind Chill Definition


Weather Definition


00:00 -10.6 -12.1 89 0.0 11 29   100.06   -20 LegendNANA
01:00 -10.2 -11.9 88 0.0 12 32   100.10   -20 LegendNANA
02:00 -10.2 -11.7 88 0.0 12 29   100.12   -20 LegendNANA
03:00 -10.3 -12.0 87 0.0 11 27   100.16   -19 LegendNANA
04:00 -9.7 -11.4 87 0.0 12 30   100.15   -19 LegendNANA
05:00 -9.2 -11.0 87 0.0 12 30   100.18   -18 LegendNANA
06:00 -9.6 -11.3 87 0.0 12 29   100.20   -19 LegendNANA
07:00 -8.2 -10.0 86 0.0 14 30   100.22   -17 LegendNANA
08:00 -7.4 -9.4 85 0.0 11 23   100.26   -15 LegendNANA
09:00
10:00
11:00 -7.7 -9.7 85 0.0 14 27   100.28   -16 LegendNANA
12:00 -7.4 -9.3 87 0.0 11 29   100.31   -16 LegendNANA
13:00 -7.1 -8.9 87 0.0 12 33   100.29   -16 LegendNANA
14:00 -7.0 -9.3 84 0.0 11 23   100.31   -15 LegendNANA
15:00 -6.1 -8.8 81 0.0 15 24   100.30   -14 LegendNANA
16:00 -6.9 -8.8 86 0.0 13 31   100.29   -16 LegendNANA
17:00 -6.5 -8.7 84 0.0 12 34   100.25   -15 LegendNANA
18:00 -6.2 -8.6 83 0.0 12 32   100.20   -15 LegendNANA
19:00 -5.6 -8.0 83 0.0 13 33   100.14   -14 LegendNANA
20:00 -5.2 -7.8 82 0.0 14 29   100.08   -13 LegendNANA
21:00 -5.5 -6.8 90 0.0 14 40   100.02   -15 LegendNANA
22:00 -5.6 -6.2 96 0.0 13 28   99.98   -14 LegendNANA
23:00 -5.3 -6.0 95 0.0 15 36   99.91   -14 LegendNANA

Notes on Data Quality.

Legend

  • E = Estimated
  • M = Missing
  • NA = Not Available*
  • [empty] = Indicates an unobserved value
Date modified: